Volver al catálogo

OTB

ActivoCienciaLEO
NORAD 44341·PAYLOAD·🇺🇸 United States

Lanzado Jun 25, 2019 desde Cape Canaveral Space Force Station

Loading…

Próximos Pases (próximas 24 horas)

TLE

ActualizadoSource: Space-Track

Época: Sep 14, 2026, 00:03 UTC

1 44341U 19036C   26257.00250545  .00000944  00000-0  15713-3 0  9995
2 44341  23.9959 137.6059 0010720 261.1919  98.7359 14.57343152384343

Sigue OTB en tiempo real con AllMySat

Download on the App Store